Time,TemperatureF,DewpointF,PressureIn,WindDirection,WindDirectionDegrees,WindSpeedMPH,WindSpeedGustMPH,Humidity,HourlyPrecipIn,Conditions,Clouds,dailyrainin,SoftwareType,DateUTC
2013-03-27 00:05:00,36.0,24.2,29.78,West,270,6.0,10.0,62,0.00,,,0.00,Weather View 32 v70,2013-03-27 04:05:00,
2013-03-27 00:09:00,36.0,24.2,29.78,SE,135,1.0,10.0,62,0.00,,,0.00,Weather View 32 v70,2013-03-27 04:09:00,
2013-03-27 00:14:00,36.0,24.2,29.78,West,270,3.0,10.0,62,0.00,,,0.00,Weather View 32 v70,2013-03-27 04:14:00,
2013-03-27 00:19:00,36.0,24.6,29.78,WNW,292,3.0,10.0,63,0.00,,,0.00,Weather View 32 v70,2013-03-27 04:19:00,
2013-03-27 00:24:00,36.0,24.6,29.78,WSW,248,3.0,10.0,63,0.00,,,0.00,Weather View 32 v70,2013-03-27 04:24:00,
2013-03-27 00:29:00,36.0,24.6,29.78,SW,225,2.0,10.0,63,0.00,,,0.00,Weather View 32 v70,2013-03-27 04:29:00,
2013-03-27 00:34:00,36.0,24.6,29.78,WSW,248,2.0,10.0,63,0.00,,,0.00,Weather View 32 v70,2013-03-27 04:34:00,
2013-03-27 00:42:00,36.0,24.6,29.78,WNW,292,3.0,10.0,63,0.00,,,0.00,Weather View 32 v70,2013-03-27 04:42:00,
2013-03-27 00:49:00,36.0,24.6,29.78,West,270,4.0,10.0,63,0.00,,,0.00,Weather View 32 v70,2013-03-27 04:49:00,
2013-03-27 00:59:00,36.0,24.6,29.78,West,270,3.0,10.0,63,0.00,,,0.00,Weather View 32 v70,2013-03-27 04:59:00,
2013-03-27 01:04:00,36.0,24.2,29.78,WNW,292,2.0,10.0,62,0.00,,,0.00,Weather View 32 v70,2013-03-27 05:04:00,
2013-03-27 01:14:00,36.0,24.2,29.78,WNW,292,2.0,13.0,62,0.00,,,0.00,Weather View 32 v70,2013-03-27 05:14:00,
2013-03-27 01:20:00,36.0,24.2,29.77,SW,225,3.0,13.0,62,0.00,,,0.00,Weather View 32 v70,2013-03-27 05:20:00,
2013-03-27 01:29:00,36.0,24.2,29.78,South,180,1.0,13.0,62,0.00,,,0.00,Weather View 32 v70,2013-03-27 05:29:00,
2013-03-27 01:39:00,36.0,24.2,29.78,WNW,292,1.0,13.0,62,0.00,,,0.00,Weather View 32 v70,2013-03-27 05:39:00,
2013-03-27 01:44:00,36.0,24.6,29.77,SW,225,5.0,13.0,63,0.00,,,0.00,Weather View 32 v70,2013-03-27 05:44:00,
2013-03-27 01:54:00,35.0,24.0,29.78,WNW,292,1.0,13.0,64,0.00,,,0.00,Weather View 32 v70,2013-03-27 05:54:00,
2013-03-27 02:04:00,35.0,24.0,29.77,SSW,202,5.0,13.0,64,0.00,,,0.00,Weather View 32 v70,2013-03-27 06:04:00,
2013-03-27 02:14:00,35.0,23.7,29.77,West,270,2.0,10.0,63,0.00,,,0.00,Weather View 32 v70,2013-03-27 06:14:00,
2013-03-27 02:24:00,35.0,23.7,29.77,WNW,292,2.0,12.0,63,0.00,,,0.00,Weather View 32 v70,2013-03-27 06:24:00,
2013-03-27 02:35:00,35.0,23.7,29.77,West,270,5.0,12.0,63,0.00,,,0.00,Weather View 32 v70,2013-03-27 06:35:00,
2013-03-27 02:43:00,36.0,24.2,29.77,SSE,158,3.0,12.0,62,0.00,,,0.00,Weather View 32 v70,2013-03-27 06:43:00,
2013-03-27 02:49:00,35.0,23.7,29.76,SW,225,1.0,12.0,63,0.00,,,0.00,Weather View 32 v70,2013-03-27 06:49:00,
2013-03-27 02:59:00,35.0,23.7,29.76,SE,135,2.0,12.0,63,0.00,,,0.00,Weather View 32 v70,2013-03-27 06:59:00,
2013-03-27 03:09:00,35.0,23.7,29.76,SSE,158,3.0,12.0,63,0.00,,,0.00,Weather View 32 v70,2013-03-27 07:09:00,
2013-03-27 03:19:00,35.0,23.7,29.76,WNW,292,3.0,12.0,63,0.00,,,0.00,Weather View 32 v70,2013-03-27 07:19:00,
2013-03-27 03:29:00,35.0,23.7,29.76,SE,135,1.0,10.0,63,0.00,,,0.00,Weather View 32 v70,2013-03-27 07:29:00,
2013-03-27 03:39:00,35.0,23.7,29.76,WNW,292,2.0,10.0,63,0.00,,,0.00,Weather View 32 v70,2013-03-27 07:39:00,
2013-03-27 03:44:00,35.0,23.7,29.75,WSW,248,8.0,12.0,63,0.00,,,0.00,Weather View 32 v70,2013-03-27 07:44:00,
2013-03-27 03:54:00,35.0,23.7,29.75,West,270,6.0,12.0,63,0.00,,,0.00,Weather View 32 v70,2013-03-27 07:54:00,
2013-03-27 04:00:00,35.0,23.3,29.75,SW,225,3.0,12.0,62,0.00,,,0.00,Weather View 32 v70,2013-03-27 08:00:00,
2013-03-27 04:09:00,35.0,23.3,29.75,WSW,248,8.0,12.0,62,0.00,,,0.00,Weather View 32 v70,2013-03-27 08:09:00,
2013-03-27 04:20:00,35.0,23.3,29.75,WNW,292,1.0,12.0,62,0.00,,,0.00,Weather View 32 v70,2013-03-27 08:20:00,
2013-03-27 04:29:00,35.0,23.3,29.75,WNW,292,4.0,12.0,62,0.00,,,0.00,Weather View 32 v70,2013-03-27 08:29:00,
2013-03-27 04:39:00,36.0,23.8,29.75,SE,135,4.0,12.0,61,0.00,,,0.00,Weather View 32 v70,2013-03-27 08:39:00,
2013-03-27 04:44:00,36.0,23.8,29.76,WNW,292,1.0,12.0,61,0.00,,,0.00,Weather View 32 v70,2013-03-27 08:44:00,
2013-03-27 04:54:00,35.0,23.7,29.75,SSE,158,2.0,11.0,63,0.00,,,0.00,Weather View 32 v70,2013-03-27 08:54:00,
2013-03-27 04:59:00,35.0,23.3,29.76,WNW,292,3.0,11.0,62,0.00,,,0.00,Weather View 32 v70,2013-03-27 08:59:00,
2013-03-27 05:09:00,35.0,23.3,29.76,WNW,292,6.0,10.0,62,0.00,,,0.00,Weather View 32 v70,2013-03-27 09:09:00,
2013-03-27 05:15:00,35.0,22.9,29.76,South,180,3.0,10.0,61,0.00,,,0.00,Weather View 32 v70,2013-03-27 09:15:00,
2013-03-27 05:24:00,35.0,23.3,29.76,South,180,3.0,10.0,62,0.00,,,0.00,Weather View 32 v70,2013-03-27 09:24:00,
2013-03-27 05:29:00,35.0,23.3,29.76,SW,225,5.0,10.0,62,0.00,,,0.00,Weather View 32 v70,2013-03-27 09:29:00,
2013-03-27 05:39:00,35.0,23.3,29.77,South,180,2.0,10.0,62,0.00,,,0.00,Weather View 32 v70,2013-03-27 09:39:00,
2013-03-27 05:44:00,35.0,23.7,29.77,SSE,158,1.0,9.0,63,0.00,,,0.00,Weather View 32 v70,2013-03-27 09:44:00,
2013-03-27 05:54:00,35.0,23.7,29.77,South,180,1.0,10.0,63,0.00,,,0.00,Weather View 32 v70,2013-03-27 09:54:00,
2013-03-27 05:59:00,34.0,23.1,29.76,WNW,292,4.0,10.0,64,0.00,,,0.00,Weather View 32 v70,2013-03-27 09:59:00,
2013-03-27 06:04:00,34.0,23.1,29.77,SW,225,3.0,10.0,64,0.00,,,0.00,Weather View 32 v70,2013-03-27 10:04:00,
2013-03-27 06:09:00,34.0,23.1,29.77,SW,225,2.0,10.0,64,0.00,,,0.00,Weather View 32 v70,2013-03-27 10:09:00,
2013-03-27 06:14:00,35.0,23.7,29.78,WNW,292,2.0,10.0,63,0.00,,,0.00,Weather View 32 v70,2013-03-27 10:14:00,
2013-03-27 06:24:00,35.0,24.0,29.78,South,180,3.0,10.0,64,0.00,,,0.00,Weather View 32 v70,2013-03-27 10:24:00,
2013-03-27 06:29:00,34.0,23.1,29.78,WNW,292,1.0,10.0,64,0.00,,,0.00,Weather View 32 v70,2013-03-27 10:29:00,
2013-03-27 06:34:00,34.0,23.1,29.78,South,180,1.0,10.0,64,0.00,,,0.00,Weather View 32 v70,2013-03-27 10:34:00,
2013-03-27 06:44:00,34.0,23.5,29.78,SE,135,2.0,10.0,65,0.00,,,0.00,Weather View 32 v70,2013-03-27 10:44:00,
2013-03-27 06:49:00,34.0,23.5,29.78,South,180,0.0,10.0,65,0.00,,,0.00,Weather View 32 v70,2013-03-27 10:49:00,
2013-03-27 06:54:00,34.0,23.1,29.78,SW,225,3.0,10.0,64,0.00,,,0.00,Weather View 32 v70,2013-03-27 10:54:00,
2013-03-27 07:04:00,35.0,24.0,29.78,SE,135,1.0,10.0,64,0.00,,,0.00,Weather View 32 v70,2013-03-27 11:04:00,
2013-03-27 07:09:00,35.0,24.0,29.78,SW,225,1.0,10.0,64,0.00,,,0.00,Weather View 32 v70,2013-03-27 11:09:00,
2013-03-27 07:15:00,35.0,24.0,29.78,SW,225,1.0,10.0,64,0.00,,,0.00,Weather View 32 v70,2013-03-27 11:15:00,
2013-03-27 07:24:00,35.0,24.0,29.78,West,270,6.0,10.0,64,0.00,,,0.00,Weather View 32 v70,2013-03-27 11:24:00,
2013-03-27 07:34:00,35.0,24.0,29.78,South,180,6.0,13.0,64,0.00,,,0.00,Weather View 32 v70,2013-03-27 11:34:00,
2013-03-27 07:44:00,36.0,24.6,29.78,SSW,202,3.0,13.0,63,0.00,,,0.00,Weather View 32 v70,2013-03-27 11:44:00,
2013-03-27 07:54:00,37.0,25.2,29.79,West,270,4.0,13.0,62,0.00,,,0.00,Weather View 32 v70,2013-03-27 11:54:00,
2013-03-27 08:00:00,37.0,24.8,29.79,WSW,248,5.0,13.0,61,0.00,,,0.00,Weather View 32 v70,2013-03-27 12:00:00,
2013-03-27 08:09:00,37.0,24.4,29.79,SSE,158,7.0,13.0,60,0.00,,,0.00,Weather View 32 v70,2013-03-27 12:09:00,
2013-03-27 08:19:00,38.0,25.3,29.79,SSW,202,4.0,13.0,60,0.00,,,0.00,Weather View 32 v70,2013-03-27 12:19:00,
2013-03-27 08:25:00,38.0,25.3,29.78,SSW,202,2.0,13.0,60,0.00,,,0.00,Weather View 32 v70,2013-03-27 12:25:00,
2013-03-27 08:34:00,38.0,25.3,29.78,West,270,3.0,11.0,60,0.00,,,0.00,Weather View 32 v70,2013-03-27 12:34:00,
2013-03-27 08:44:00,38.0,24.9,29.79,SW,225,5.0,11.0,59,0.00,,,0.00,Weather View 32 v70,2013-03-27 12:44:00,
2013-03-27 08:49:00,38.0,24.9,29.79,SSW,202,4.0,11.0,59,0.00,,,0.00,Weather View 32 v70,2013-03-27 12:49:00,
2013-03-27 08:54:00,39.0,25.5,29.79,WNW,292,4.0,11.0,58,0.00,,,0.00,Weather View 32 v70,2013-03-27 12:54:00,
2013-03-27 09:05:00,39.0,25.5,29.79,SE,135,6.0,11.0,58,0.00,,,0.00,Weather View 32 v70,2013-03-27 13:05:00,
2013-03-27 09:14:00,39.0,25.0,29.79,West,270,7.0,11.0,57,0.00,,,0.00,Weather View 32 v70,2013-03-27 13:14:00,
2013-03-27 09:24:00,40.0,26.0,29.79,SSW,202,3.0,11.0,57,0.00,,,0.00,Weather View 32 v70,2013-03-27 13:24:00,
2013-03-27 09:29:00,40.0,25.5,29.79,West,270,5.0,12.0,56,0.00,,,0.00,Weather View 32 v70,2013-03-27 13:29:00,
2013-03-27 09:34:00,40.0,25.5,29.79,WSW,248,6.0,14.0,56,0.00,,,0.00,Weather View 32 v70,2013-03-27 13:34:00,
2013-03-27 09:44:00,41.0,26.0,29.79,SE,135,2.0,14.0,55,0.00,,,0.00,Weather View 32 v70,2013-03-27 13:44:00,
2013-03-27 09:50:00,41.0,26.0,29.79,WNW,292,4.0,14.0,55,0.00,,,0.00,Weather View 32 v70,2013-03-27 13:50:00,
2013-03-27 09:59:00,41.0,26.0,29.79,South,180,2.0,14.0,55,0.00,,,0.00,Weather View 32 v70,2013-03-27 13:59:00,
2013-03-27 10:09:00,42.0,26.5,29.79,WSW,248,5.0,17.0,54,0.00,,,0.00,Weather View 32 v70,2013-03-27 14:09:00,
2013-03-27 10:15:00,42.0,26.1,29.78,WSW,248,3.0,17.0,53,0.00,,,0.00,Weather View 32 v70,2013-03-27 14:15:00,
2013-03-27 10:24:00,42.0,25.6,29.79,WSW,248,5.0,17.0,52,0.00,,,0.00,Weather View 32 v70,2013-03-27 14:24:00,
2013-03-27 10:29:00,43.0,26.6,29.78,WNW,292,5.0,17.0,52,0.00,,,0.00,Weather View 32 v70,2013-03-27 14:29:00,
2013-03-27 10:34:00,43.0,26.6,29.79,West,270,7.0,17.0,52,0.00,,,0.00,Weather View 32 v70,2013-03-27 14:34:00,
2013-03-27 10:40:00,43.0,26.6,29.78,SSW,202,6.0,17.0,52,0.00,,,0.00,Weather View 32 v70,2013-03-27 14:40:00,
2013-03-27 10:48:00,43.0,26.6,29.78,WNW,292,4.0,17.0,52,0.00,,,0.00,Weather View 32 v70,2013-03-27 14:48:00,
2013-03-27 10:55:00,44.0,26.5,29.79,SSE,158,6.0,17.0,50,0.00,,,0.00,Weather View 32 v70,2013-03-27 14:55:00,
2013-03-27 11:04:00,45.0,27.5,29.78,West,270,4.0,15.0,50,0.00,,,0.00,Weather View 32 v70,2013-03-27 15:04:00,
2013-03-27 11:10:00,45.0,27.5,29.78,West,270,6.0,15.0,50,0.00,,,0.00,Weather View 32 v70,2013-03-27 15:10:00,
2013-03-27 11:19:00,45.0,27.5,29.79,WNW,292,6.0,15.0,50,0.00,,,0.00,Weather View 32 v70,2013-03-27 15:19:00,
2013-03-27 11:24:00,46.0,27.9,29.78,WNW,292,7.0,15.0,49,0.00,,,0.00,Weather View 32 v70,2013-03-27 15:24:00,
2013-03-27 11:34:00,46.0,27.4,29.78,SSW,202,3.0,15.0,48,0.00,,,0.00,Weather View 32 v70,2013-03-27 15:34:00,
2013-03-27 11:40:00,46.0,26.3,29.78,SSW,202,3.0,14.0,46,0.00,,,0.00,Weather View 32 v70,2013-03-27 15:40:00,
2013-03-27 11:48:00,46.0,26.9,29.78,West,270,8.0,15.0,47,0.00,,,0.00,Weather View 32 v70,2013-03-27 15:48:00,
2013-03-27 11:55:00,45.0,26.0,29.78,South,180,6.0,15.0,47,0.00,,,0.00,Weather View 32 v70,2013-03-27 15:55:00,
2013-03-27 12:04:00,46.0,26.3,29.78,SW,225,3.0,18.0,46,0.00,,,0.00,Weather View 32 v70,2013-03-27 16:04:00,
2013-03-27 12:14:00,46.0,26.3,29.78,West,270,5.0,18.0,46,0.00,,,0.00,Weather View 32 v70,2013-03-27 16:14:00,
2013-03-27 12:20:00,46.0,26.9,29.78,WSW,248,4.0,18.0,47,0.00,,,0.00,Weather View 32 v70,2013-03-27 16:20:00,
2013-03-27 12:24:00,46.0,26.9,29.78,WNW,292,13.0,18.0,47,0.00,,,0.00,Weather View 32 v70,2013-03-27 16:24:00,
2013-03-27 12:34:00,47.0,27.3,29.78,WNW,292,6.0,18.0,46,0.00,,,0.00,Weather View 32 v70,2013-03-27 16:34:00,
2013-03-27 12:39:00,47.0,27.3,29.78,SE,135,3.0,18.0,46,0.00,,,0.00,Weather View 32 v70,2013-03-27 16:39:00,
2013-03-27 12:49:00,47.0,27.3,29.78,WNW,292,3.0,18.0,46,0.00,,,0.00,Weather View 32 v70,2013-03-27 16:49:00,
2013-03-27 12:54:00,47.0,26.7,29.77,WNW,292,3.0,18.0,45,0.00,,,0.00,Weather View 32 v70,2013-03-27 16:54:00,
2013-03-27 13:00:00,47.0,26.7,29.78,West,270,5.0,18.0,45,0.00,,,0.00,Weather View 32 v70,2013-03-27 17:00:00,
2013-03-27 13:09:00,47.0,26.7,29.78,WSW,248,5.0,17.0,45,0.00,,,0.00,Weather View 32 v70,2013-03-27 17:09:00,
2013-03-27 13:14:00,47.0,26.7,29.77,WSW,248,8.0,19.0,45,0.00,,,0.00,Weather View 32 v70,2013-03-27 17:14:00,
2013-03-27 13:25:00,47.0,26.2,29.77,WSW,248,3.0,19.0,44,0.00,,,0.00,Weather View 32 v70,2013-03-27 17:25:00,
2013-03-27 13:29:00,47.0,26.2,29.77,WNW,292,8.0,19.0,44,0.00,,,0.00,Weather View 32 v70,2013-03-27 17:29:00,
2013-03-27 13:39:00,48.0,27.6,29.77,SW,225,3.0,19.0,45,0.00,,,0.00,Weather View 32 v70,2013-03-27 17:39:00,
2013-03-27 13:49:00,48.0,27.1,29.78,WSW,248,6.0,19.0,44,0.00,,,0.00,Weather View 32 v70,2013-03-27 17:49:00,
2013-03-27 13:54:00,48.0,27.1,29.77,WNW,292,4.0,19.0,44,0.00,,,0.00,Weather View 32 v70,2013-03-27 17:54:00,
2013-03-27 14:04:00,48.0,27.6,29.77,SE,135,1.0,19.0,45,0.00,,,0.00,Weather View 32 v70,2013-03-27 18:04:00,
2013-03-27 14:09:00,48.0,27.1,29.77,West,270,6.0,19.0,44,0.00,,,0.00,Weather View 32 v70,2013-03-27 18:09:00,
2013-03-27 14:19:00,48.0,28.2,29.77,WNW,292,3.0,16.0,46,0.00,,,0.00,Weather View 32 v70,2013-03-27 18:19:00,
2013-03-27 14:24:00,48.0,27.1,29.77,SE,135,5.0,16.0,44,0.00,,,0.00,Weather View 32 v70,2013-03-27 18:24:00,
2013-03-27 14:34:00,48.0,27.6,29.78,SSW,202,2.0,14.0,45,0.00,,,0.00,Weather View 32 v70,2013-03-27 18:34:00,
2013-03-27 14:39:00,48.0,27.6,29.78,WNW,292,6.0,14.0,45,0.00,,,0.00,Weather View 32 v70,2013-03-27 18:39:00,
2013-03-27 14:50:00,48.0,28.2,29.78,SSE,158,1.0,14.0,46,0.00,,,0.00,Weather View 32 v70,2013-03-27 18:50:00,
2013-03-27 14:59:00,47.0,27.8,29.78,West,270,3.0,14.0,47,0.00,,,0.00,Weather View 32 v70,2013-03-27 18:59:00,
2013-03-27 15:04:00,47.0,27.8,29.78,SSE,158,1.0,14.0,47,0.00,,,0.00,Weather View 32 v70,2013-03-27 19:04:00,
2013-03-27 15:15:00,46.0,27.4,29.78,South,180,3.0,14.0,48,0.00,,,0.00,Weather View 32 v70,2013-03-27 19:15:00,
2013-03-27 15:24:00,46.0,27.9,29.79,WSW,248,4.0,14.0,49,0.00,,,0.00,Weather View 32 v70,2013-03-27 19:24:00,
2013-03-27 15:29:00,46.0,27.9,29.79,SSW,202,2.0,14.0,49,0.00,,,0.00,Weather View 32 v70,2013-03-27 19:29:00,
2013-03-27 15:39:00,46.0,27.9,29.79,SSW,202,5.0,14.0,49,0.00,,,0.00,Weather View 32 v70,2013-03-27 19:39:00,
2013-03-27 15:44:00,46.0,28.4,29.79,SSW,202,2.0,14.0,50,0.00,,,0.00,Weather View 32 v70,2013-03-27 19:44:00,
2013-03-27 15:51:00,46.0,28.4,29.79,West,270,5.0,14.0,50,0.00,,,0.00,Weather View 32 v70,2013-03-27 19:51:00,
2013-03-27 15:59:00,46.0,28.4,29.79,WSW,248,4.0,14.0,50,0.00,,,0.00,Weather View 32 v70,2013-03-27 19:59:00,
2013-03-27 16:09:00,45.0,27.9,29.80,WNW,292,3.0,13.0,51,0.00,,,0.00,Weather View 32 v70,2013-03-27 20:09:00,
2013-03-27 16:19:00,45.0,28.4,29.80,WSW,248,3.0,13.0,52,0.00,,,0.00,Weather View 32 v70,2013-03-27 20:19:00,
2013-03-27 16:24:00,45.0,28.9,29.80,West,270,2.0,13.0,53,0.00,,,0.00,Weather View 32 v70,2013-03-27 20:24:00,
2013-03-27 16:34:00,44.0,28.4,29.80,South,180,4.0,11.0,54,0.00,,,0.00,Weather View 32 v70,2013-03-27 20:34:00,
2013-03-27 16:44:00,43.0,28.4,29.80,SSW,202,3.0,11.0,56,0.00,,,0.00,Weather View 32 v70,2013-03-27 20:44:00,
2013-03-27 16:49:00,43.0,28.8,29.81,South,180,2.0,11.0,57,0.00,,,0.00,Weather View 32 v70,2013-03-27 20:49:00,
2013-03-27 16:59:00,43.0,28.8,29.81,WSW,248,4.0,10.0,57,0.00,,,0.00,Weather View 32 v70,2013-03-27 20:59:00,
2013-03-27 17:04:00,43.0,29.2,29.81,West,270,1.0,10.0,58,0.00,,,0.00,Weather View 32 v70,2013-03-27 21:04:00,
2013-03-27 17:09:00,43.0,29.2,29.81,SE,135,1.0,10.0,58,0.00,,,0.00,Weather View 32 v70,2013-03-27 21:09:00,
2013-03-27 17:19:00,42.0,28.7,29.81,West,270,4.0,11.0,59,0.00,,,0.00,Weather View 32 v70,2013-03-27 21:19:00,
2013-03-27 17:24:00,42.0,28.7,29.82,WSW,248,3.0,11.0,59,0.00,,,0.00,Weather View 32 v70,2013-03-27 21:24:00,
2013-03-27 17:29:00,42.0,28.7,29.82,WNW,292,3.0,11.0,59,0.00,,,0.00,Weather View 32 v70,2013-03-27 21:29:00,
2013-03-27 17:39:00,42.0,29.9,29.83,SW,225,2.0,14.0,62,0.00,,,0.00,Weather View 32 v70,2013-03-27 21:39:00,
2013-03-27 17:50:00,42.0,30.3,29.83,WSW,248,5.0,14.0,63,0.00,,,0.00,Weather View 32 v70,2013-03-27 21:50:00,
2013-03-27 17:59:00,42.0,30.7,29.84,South,180,3.0,14.0,64,0.00,,,0.00,Weather View 32 v70,2013-03-27 21:59:00,
2013-03-27 18:05:00,41.0,29.7,29.84,South,180,1.0,14.0,64,0.00,,,0.00,Weather View 32 v70,2013-03-27 22:05:00,
2013-03-27 18:09:00,41.0,29.7,29.84,WSW,248,3.0,14.0,64,0.00,,,0.00,Weather View 32 v70,2013-03-27 22:09:00,
2013-03-27 18:19:00,41.0,30.5,29.84,SSW,202,8.0,14.0,66,0.00,,,0.00,Weather View 32 v70,2013-03-27 22:19:00,
2013-03-27 18:30:00,41.0,30.9,29.84,WSW,248,10.0,14.0,67,0.00,,,0.00,Weather View 32 v70,2013-03-27 22:30:00,
2013-03-27 18:39:00,41.0,31.2,29.85,SE,135,1.0,14.0,68,0.00,,,0.00,Weather View 32 v70,2013-03-27 22:39:00,
2013-03-27 18:49:00,40.0,30.3,29.85,SE,135,1.0,14.0,68,0.00,,,0.00,Weather View 32 v70,2013-03-27 22:49:00,
2013-03-27 18:54:00,40.0,30.6,29.85,WNW,292,1.0,14.0,69,0.00,,,0.00,Weather View 32 v70,2013-03-27 22:54:00,
2013-03-27 19:04:00,40.0,31.0,29.85,WSW,248,3.0,14.0,70,0.00,,,0.00,Weather View 32 v70,2013-03-27 23:04:00,
2013-03-27 19:10:00,40.0,31.0,29.85,WSW,248,5.0,14.0,70,0.00,,,0.00,Weather View 32 v70,2013-03-27 23:10:00,
2013-03-27 19:19:00,39.0,30.4,29.86,SE,135,1.0,14.0,71,0.00,,,0.00,Weather View 32 v70,2013-03-27 23:19:00,
2013-03-27 19:24:00,39.0,30.7,29.86,WSW,248,4.0,14.0,72,0.00,,,0.00,Weather View 32 v70,2013-03-27 23:24:00,
2013-03-27 19:34:00,39.0,30.7,29.86,SSW,202,4.0,11.0,72,0.00,,,0.00,Weather View 32 v70,2013-03-27 23:34:00,
2013-03-27 19:39:00,39.0,31.1,29.86,WNW,292,0.0,10.0,73,0.00,,,0.00,Weather View 32 v70,2013-03-27 23:39:00,
2013-03-27 19:44:00,39.0,31.1,29.86,WSW,248,4.0,10.0,73,0.00,,,0.00,Weather View 32 v70,2013-03-27 23:44:00,
2013-03-27 19:49:00,39.0,31.4,29.86,SSE,158,2.0,10.0,74,0.00,,,0.00,Weather View 32 v70,2013-03-27 23:49:00,
2013-03-27 20:00:00,39.0,32.1,29.87,WSW,248,1.0,12.0,76,0.00,,,0.00,Weather View 32 v70,2013-03-28 00:00:00,
2013-03-27 20:09:00,38.0,31.4,29.87,WSW,248,1.0,12.0,77,0.00,,,0.00,Weather View 32 v70,2013-03-28 00:09:00,
2013-03-27 20:19:00,38.0,31.7,29.87,West,270,4.0,12.0,78,0.00,,,0.00,Weather View 32 v70,2013-03-28 00:19:00,
2013-03-27 20:24:00,38.0,32.1,29.87,WNW,292,1.0,12.0,79,0.00,,,0.00,Weather View 32 v70,2013-03-28 00:24:00,
2013-03-27 20:34:00,38.0,32.7,29.88,WSW,248,4.0,12.0,81,0.00,,,0.00,Weather View 32 v70,2013-03-28 00:34:00,
2013-03-27 20:45:00,38.0,33.0,29.88,WNW,292,2.0,12.0,82,0.00,,,0.00,Weather View 32 v70,2013-03-28 00:45:00,
2013-03-27 20:50:00,37.0,32.3,29.89,WNW,292,4.0,12.0,83,0.00,,,0.00,Weather View 32 v70,2013-03-28 00:50:00,
2013-03-27 20:59:00,37.0,32.6,29.89,WNW,292,5.0,10.0,84,0.00,,,0.00,Weather View 32 v70,2013-03-28 00:59:00,
2013-03-27 21:04:00,37.0,32.9,29.89,WNW,292,5.0,10.0,85,0.00,,,0.00,Weather View 32 v70,2013-03-28 01:04:00,
2013-03-27 21:14:00,37.0,33.2,29.89,West,270,5.0,10.0,86,0.00,,,0.00,Weather View 32 v70,2013-03-28 01:14:00,
2013-03-27 21:20:00,37.0,33.2,29.89,WSW,248,3.0,12.0,86,0.00,,,0.00,Weather View 32 v70,2013-03-28 01:20:00,
2013-03-27 21:29:00,37.0,32.9,29.89,WNW,292,6.0,12.0,85,0.00,,,0.00,Weather View 32 v70,2013-03-28 01:29:00,
2013-03-27 21:39:00,37.0,32.6,29.90,West,270,5.0,12.0,84,0.00,,,0.00,Weather View 32 v70,2013-03-28 01:39:00,
2013-03-27 21:45:00,37.0,32.6,29.90,WSW,248,7.0,12.0,84,0.00,,,0.00,Weather View 32 v70,2013-03-28 01:45:00,
2013-03-27 21:54:00,37.0,32.3,29.90,West,270,2.0,12.0,83,0.00,,,0.00,Weather View 32 v70,2013-03-28 01:54:00,
2013-03-27 22:00:00,37.0,32.3,29.90,WNW,292,3.0,12.0,83,0.00,,,0.00,Weather View 32 v70,2013-03-28 02:00:00,
2013-03-27 22:04:00,37.0,32.0,29.90,WNW,292,3.0,12.0,82,0.00,,,0.00,Weather View 32 v70,2013-03-28 02:04:00,
2013-03-27 22:14:00,37.0,32.3,29.90,West,270,1.0,12.0,83,0.00,,,0.00,Weather View 32 v70,2013-03-28 02:14:00,
2013-03-27 22:24:00,37.0,32.6,29.90,WNW,292,0.0,9.0,84,0.00,,,0.00,Weather View 32 v70,2013-03-28 02:24:00,
2013-03-27 22:29:00,37.0,32.6,29.90,SSW,202,1.0,9.0,84,0.00,,,0.00,Weather View 32 v70,2013-03-28 02:29:00,
2013-03-27 22:34:00,37.0,32.9,29.91,West,270,1.0,9.0,85,0.00,,,0.00,Weather View 32 v70,2013-03-28 02:34:00,
2013-03-27 22:44:00,37.0,33.2,29.91,SW,225,2.0,8.0,86,0.00,,,0.00,Weather View 32 v70,2013-03-28 02:44:00,
2013-03-27 22:49:00,36.0,32.5,29.91,WNW,292,0.0,8.0,87,0.00,,,0.00,Weather View 32 v70,2013-03-28 02:49:00,
2013-03-27 22:55:00,36.0,32.8,29.91,South,180,0.0,8.0,88,0.00,,,0.00,Weather View 32 v70,2013-03-28 02:55:00,
2013-03-27 23:04:00,36.0,33.3,29.92,SSE,158,1.0,6.0,90,0.00,,,0.00,Weather View 32 v70,2013-03-28 03:04:00,
2013-03-27 23:14:00,36.0,33.6,29.91,West,270,1.0,6.0,91,0.00,,,0.00,Weather View 32 v70,2013-03-28 03:14:00,
2013-03-27 23:19:00,35.0,32.9,29.91,WNW,292,0.0,6.0,92,0.00,,,0.00,Weather View 32 v70,2013-03-28 03:19:00,
2013-03-27 23:25:00,35.0,32.9,29.92,SW,225,0.0,6.0,92,0.00,,,0.00,Weather View 32 v70,2013-03-28 03:25:00,
2013-03-27 23:34:00,35.0,33.4,29.92,WNW,292,0.0,4.0,94,0.00,,,0.00,Weather View 32 v70,2013-03-28 03:34:00,
2013-03-27 23:41:00,35.0,33.4,29.92,WNW,292,0.0,4.0,94,0.00,,,0.00,Weather View 32 v70,2013-03-28 03:41:00,
2013-03-27 23:49:00,35.0,34.2,29.92,WSW,248,0.0,3.0,97,0.00,,,0.00,Weather View 32 v70,2013-03-28 03:49:00,
2013-03-27 23:59:00,35.0,34.5,29.92,West,270,0.0,3.0,98,0.00,,,0.00,Weather View 32 v70,2013-03-28 03:59:00,